Regional Weather Roundup
Issued by NWS

Home | Current Version | Previous Version | Text Only | Print | Product List | Glossary Off
Versions: 1 2 3 4 5 6 7 8 9 10 11 12 13 14 15 16 17 18 19 20 21 22 23 24 25 26 27 28 29 30 31 32 33 34 35 36 37 38 39 40 41 42 43 44 45 46 47 48 49 50

000
ASUS43 KLOT 231200
RWRIL

ILLINOIS REGIONAL WEATHER ROUNDUP
NATIONAL WEATHER SERVICE CHICAGO/ROMEOVILLE IL
700 AM CDT SAT AUG 23 2014

NOTE: "FAIR" INDICATES FEW OR NO CLOUDS BELOW 12,000 FEET WITH NO
SIGNIFICANT WEATHER AND/OR OBSTRUCTIONS TO VISIBILITY.

* THESE STATIONS ARE NOT UNDER NWS QUALITY CONTROL. THEY ALSO MAY NOT
  REPORT WEATHER SUCH AS PRECIPITATION OR FOG.

ILZ001-002-007-009-015-016-024-231300-
NORTHWEST ILLINOIS

CITY           SKY/WX    TMP DP  RH WIND       PRES   REMARKS
MOLINE         MOCLDY    74  72  93 E5        29.94S FOG
6HR MIN TEMP:  74; 6HR MAX TEMP:  77;

STERLING*      CLOUDY    72  70  94 SE3       29.96S
$$

ILZ003-004-008-010-011-017-018-231300-
NORTH CENTRAL ILLINOIS

CITY           SKY/WX    TMP DP  RH WIND       PRES   REMARKS
ROCKFORD       CLOUDY    74  71  91 E3        30.00R FOG
6HR MIN TEMP:  73; 6HR MAX TEMP:  75;

FREEPORT*      FOG       73  72  96 CALM      30.00R VSB 1/4
ROCHELLE*      MOCLDY    72  70  95 CALM      29.99R FOG
$$

ILZ005-006-012>014-019>023-231300-
NORTHEAST ILLINOIS

CITY           SKY/WX    TMP DP  RH WIND       PRES   REMARKS
CHICAGO-OHARE  FOG       73  71  93 E3        29.98R VSB 1
6HR MIN TEMP:  73; 6HR MAX TEMP:  77;

CHICAGO-MIDWAY MOCLDY    76  74  93 CALM      29.97R FOG
6HR MIN TEMP:  75; 6HR MAX TEMP:  79;

AURORA         MOCLDY    74  71  91 E5        29.98S FOG
6HR MIN TEMP:  71; 6HR MAX TEMP:  75;

WAUKEGAN       FOG       71  70  96 CALM      29.97S VSB<1/4
6HR MIN TEMP:  70; 6HR MAX TEMP:  71;

DUPAGE AIRPORT FOG       73  72  96 E3        29.98R VSB 1/2
6HR MIN TEMP:  72; 6HR MAX TEMP:  75;

WHEELING       FOG       73  71  93 CALM      29.99S VSB 1/4
6HR MIN TEMP:  73; 6HR MAX TEMP:  75;

NORTHERLY ISL    N/A     72  71  97 NE1         N/A
$$

LMZ740>746-231300-
SOUTHERN LAKE MICHIGAN

STATION/POSITION SKY/WX   TEMP    WIND        PRES    VSBY  WAVE
                          AIR SEA DIR/SP/G                  HT/PER
                          (F)     (DEG/KT/KT) (MB)    (MI)  (FT/S)
SOUTHERN BUOY              70 69  100/  8/  8 1015.1F         0
WAUKEGAN HARBOR            71      50/  4/  4   N/A
HARRISON CRIB              72      50/  4/  4   N/A
BURNHAM HARBOR             72      30/  3/  4   N/A
CALUMET HARBOR             72     330/  2/  2 1013.8R
MICHIGAN CITY              72     100/  3/  4   N/A
MICHIGAN CITY 6N           72 72   80/  2/  4   N/A           0
ST. JOSEPH                 73 73  110/  6/  8   N/A           0
$$

ILZ025>027-034>036-040-047-049-050-058-095>099-231300-
WEST-CENTRAL ILLINOIS

CITY           SKY/WX    TMP DP  RH WIND       PRES   REMARKS
QUINCY         MOCLDY    76  75  97 S6        29.93R FOG
GALESBURG*     FOG       73  73  97 E3        29.95S VSB 1/2
MACOMB*        PTCLDY    72  72 100 CALM      29.97R FOG
$$

ILZ028>032-037-038-041>044-048-051>054-059>061-231300-
CENTRAL ILLINOIS

CITY           SKY/WX    TMP DP  RH WIND       PRES   REMARKS
DECATUR        CLEAR     75  74  96 E3        29.96R FOG
PEORIA         CLEAR     76  72  87 NE3       29.96R FOG
6HR MIN TEMP:  75; 6HR MAX TEMP:  78;

SPRINGFIELD    CLEAR     77  75  93 SE3       29.94R FOG
6HR MIN TEMP:  76; 6HR MAX TEMP:  79;

TAYLORVILLE    NOT AVBL
$$

ILZ033-039-045-046-055>057-062-063-231300-
EAST-CENTRAL ILLINOIS

CITY           SKY/WX    TMP DP  RH WIND       PRES   REMARKS
CHAMPAIGN      FOG       73  73 100 E5        29.97S VSB 1/4
MATTOON        FOG       75  75 100 SE7       29.95S VSB 1/4
$$

ILZ079-100>102-231300-
SOUTHWEST ILLINOIS

CITY           SKY/WX    TMP DP  RH WIND       PRES   REMARKS
ALTON          CLEAR     73  73 100 CALM      29.95R
BELLEVILLE     CLEAR     74  74 100 CALM      29.93R FOG
CAHOKIA*       CLEAR     76  74  93 S5        29.94R
$$

ILZ064>066-069>071-074>076-080>082-084>086-088>090-092>094-231300-
SOUTH-CENTRAL ILLINOIS

CITY           SKY/WX    TMP DP  RH WIND       PRES   REMARKS
CARBONDALE     CLEAR     76  74  93 S5        29.96R
6HR MIN TEMP:  75; 6HR MAX TEMP:  79;

MARION         MOCLDY    79  75  89 S7        29.97S HX  82
MT. VERNON     PTCLDY    75  72  88 SW3       29.96S
SALEM*         CLEAR     79  77  95 S3        29.95S FOG     HX  83
$$

ILZ067-068-072-073-078-083-087-091-231300-
SOUTHEAST ILLINOIS

CITY           SKY/WX    TMP DP  RH WIND       PRES   REMARKS
LAWRENCEVILLE  PTCLDY    74  73  97 S3        29.96S FOG
HARRISBURG*    LGT RAIN  77  77 100 CALM      29.96F
ROBINSON*      MOCLDY    75  74  97 CALM      29.97S FOG
$$

ABBREVIATIONS USED IN REMARKS
   TC - TEMPERATURE IN CELSIUS
  WCI - WIND CHILL INDEX
   HX - HEAT INDEX
  VSB - VISIBILITY
$$




USA.gov is the U.S. government's official web portal to all federal, state and local government web resources and services.